{"data":{"norad_id":68417,"intl_designator":"2026-067B","name":"JACK-002","alt_names":[],"object_type":"PAYLOAD","status":"ACTIVE","operator":null,"country":"SKOR","launch_date":"2026-03-30","launch_site_code":"AFWTR","launch_vehicle":null,"mission":null,"orbit_class":"UNKNOWN","rcs_meters":null,"size_class":null,"mass_kg":null,"dimensions":null,"purposes":[],"wikipedia_slug":null,"has_3d_model":false,"image_url":null,"decayed_at":null,"tle_current":{"epoch":"2026-09-19T15:14:28.802976Z","epoch_age_seconds":143898,"freshness":"FRESH","line1":"1 68417U 26067B   26262.63505559  .00004873  00000+0  22676-3 0  9990","line2":"2 68417  97.4671 220.1781 0001318  19.7204 340.4082 15.20404539 26292","mean_motion":15.20404539,"eccentricity":0.0001318,"inclination_deg":97.4671,"raan_deg":220.1781,"arg_perigee_deg":19.7204,"mean_anomaly_deg":340.4082,"bstar":0.00022676,"rev_number":2629,"period_min":94.711635164357,"perigee_km":503.71231734963,"apogee_km":505.52661195371,"semimajor_km":6882.7564646517,"source":"CELESTRAK","updated_at":"2026-09-20T09:00:24.197994Z"}}}